Regional Weather Roundup
Issued by NWS New Orleans/Baton Rouge, LA

Home | Current Version | Previous Version | Graphics & Text | Print | Product List | Glossary Off
Versions: 1 2 3 4 5 6 7 8 9 10 11 12 13 14 15 16 17 18 19 20 21 22 23 24 25 26 27 28 29 30 31 32 33 34 35 36 37 38 39 40 41 42 43 44 45 46 47 48 49 50

121
ASUS44 KLIX 302210
RWRLIX
NEW ORLEANS REGIONAL WEATHER ROUNDUP
NATIONAL WEATHER SERVICE NEW ORLEANS LA
500 PM CDT TUE SEP 30 2014

NOTE: "FAIR" INDICATES FEW OR NO CLOUDS BELOW 12,000 FEET WITH NO
      SIGNIFICANT WEATHER AND/OR OBSTRUCTIONS TO VISIBILITY.
      SKY/WX - SKY CONDITION AND SIGNIFICANT WEATHER.
      TMP - AIR TEMPERATURE.     DP    - DEWPOINT TEMPERATURE.
      RH  - RELATIVE HUMIDITY.   PRES  - PRESSURE.
      HI  - HEAT INDEX.          WCI   - WIND CHILL INDEX.

*  THESE STATIONS ARE NOT NWS OR FAA STATIONS AND ARE NOT UNDER
   NWS QUALITY CONTROL.

LAZ038-040-048-061>063-065>067-069-302300-
SOUTHEAST LOUISIANA

CITY           SKY/WX    TMP DP  RH WIND       PRES   REMARKS
N.O. AUDUBON     N/A     87  74  64 MISG        N/A
N.O. INTL ARPT MOSUNNY   87  68  52 E5        29.83S
N.O. LAKEFRONT SUNNY     84  69  60 SE9       29.84F
N.O. DOWNTOWN*   N/A     84  68  58 SE6       29.84S
SLIDELL        SUNNY     84  70  62 SE9       29.83F
BATON ROUGE    MOSUNNY   88  69  53 E7        29.82F
BOOTHVILLE     MOSUNNY   82  74  76 E10       29.86S
BELLE CHASSE   MOSUNNY   83  71  67 SE9       29.84S
BOGALUSA*        N/A     87  68  52 E6        29.85S
GALLIANO*      NOT AVBL
NEW ROADS*     MOCLDY    88  70  55 CALM      29.82S
GONZALES*        N/A     87  72  59 NE5       29.82S
HAMMOND*       MOSUNNY   88  68  51 SE6       29.84F
HOUMA*         PTSUNNY  N/A N/A N/A SE5       29.83S
PORT FOURCHON* CLEAR     82  73  74 VRB6G15   29.87S

$$

MSZ070-080>082-302300-
SOUTHERN MISSISSIPPI

CITY           SKY/WX    TMP DP  RH WIND       PRES   REMARKS
MCCOMB         SUNNY     86  66  51 VRB5      29.85S
GULFPORT       MOSUNNY   81  72  74 SE12      29.84F
BILOXI         MOSUNNY   82  73  73 S8        29.85S
PASCAGOULA     SUNNY     84  69  60 NE7       29.85F
STENNIS ARPT*  MOSUNNY   82  70  65 SE8       29.85F

$$

COASTAL OBSERVATIONS
LAKE AND NEARSHORE STATIONS

STATION/POSITION TIME  TEMP    WIND        PRES    WAVE
                       AIR SEA DIR/SP/G            HT/PER
                 (UTC) (F)     (DEG/KT/KT) (MB)    (FT/S)
PASCAGOULA       2200   83      70/  5/  8 1010.4
WAVELAND YACHT   2200   78     150/  9/ 11 1010.1
GRAND ISLE       2200   83 82  100/  7/ 11 1011.2
SOUTHWEST PASS   2200   89 86   70/  9/ 11 1011.0
NEW CANAL        2200   85 78   70/  3/  6 1010.7
SHELL BEACH      2200   81 77  110/ 10/ 12 1010.4

OFFSHORE STATIONS

STATION/POSITION TIME  TEMP    WIND        PRES    WAVE
                       AIR SEA DIR/SP/G            HT/PER
                 (UTC) (F)     (DEG/KT/KT) (MB)    (FT/S)
64 S DAUPHIN ISL 2059   79 83   70/ 10/ 14 1011.3    2/ 5

$$




USA.gov is the U.S. government's official web portal to all federal, state and local government web resources and services.